KUIPER-00097

导读 | 豆包AI

KUIPER-00097是由美国(US)于2025年8月11日发射的卫星,隶属于柯伊伯(Kuiper)卫星星座项目。该项目由亚马逊主导,旨在构建低轨宽带卫星互联网系统,为全球提供高速网络覆盖服务。KUIPER-00097的成功入轨,进一步推动了该星座的部署进程,助力完成全球网络覆盖的战略布局。

Basic Information
目录编号:
65136
目录名称:
KUIPER-00097
国际标识:
2025-171E
轨道中心:
EARTH
卫星名称:
KUIPER-00097
卫星全名:
KUIPER-00097
卫星状态:
在轨 (已飞行265 天)
发射日期:
2025-08-11 UTC
国别 :
美国 (US)
星等 :
--
Orbit Information
数据来源 国际轨道数据 AOE轨道数据
星历时间 2026-05-03T12:06:41+0800
4小时前
查看轨道信息
2026-04-27T12:00:00+0800
6天前
查看轨道信息
半长轴 7007.634km 7007.688km
偏心率 0.0000481 0.000098
轨道倾角 51.903° 51.901°
近地点辐角 99.093° 101.330°
升交点赤经 279.800° 306.354°
平近点角 261.009° 288.150°
近地点 629.159km 628.864km
远地点 629.835km 630.238km
周期 97.301分钟 97.302分钟
每日圈数 14.799455 14.799284
Detailed Information
使用方式:
暂无
2D Orbit Map
3D Orbit Map
Orbit Altitude Analysis Chart
Orbit Inclination Analysis Chart
Orbit Comprehensive Analysis Chart
View Comprehensive Chart